Аэропорт
Сыктывкар (UUYY)

 UUYY / SCW
ЗЦ Санкт-Петербург
Сыктывкар (UUYY)
Сыктывкар (UUYY)
 61.64700, 50.84510  / 342 ft

 UUYY 220630Z 32003MPS CAVOK M03/M07 Q1014 R36/410149 NOSIG RMK QFE751/1002
 TAF UUYY 220200Z 2203/2303 33003G08MPS 9999 BKN017CB TEMPO 2203/2206 4000 -SHSN BKN006 BKN016CB BECMG 2215/2217 20003G08MPS
UUYY_j_0220
показать схемы
Название сценария Тип сценария Flight Simulator 9 Flight Simulator X Prepar3D v2 Prepar3D v3 Prepar3D v4 Prepar3D v5 xPlane
UUYY-syktyvkar_FS9 бесплатный
UUYY_FSXP3Dv2 бесплатный

Аэродром "Сыктывкар" (UUYY)

Рекомендованные сценарии:

FS2004 от Aniter

P3D/FSX от Aniter 

Схемы:

АИП

Средства связи ОВД:

UUYY_R_APP - Сивкар-Круг - 124.600

UUYY_TWR - Сивкар-Старт - 124.600

UUYY_ATIS - Сивкар-АТИС (русский, английский) - 126.600



2020 © VATRUS division (Privacy Policy)